Time,TemperatureF,DewpointF,PressureIn,WindDirection,WindDirectionDegrees,WindSpeedMPH,WindSpeedGustMPH,Humidity,HourlyPrecipIn,Conditions,Clouds,dailyrainin,SoftwareType,DateUTC
2013-09-28 00:12:00,46.0,45.5,30.20,SE,135,0.0,-999.0,98,-99.99,,,0.00,Acu-Link.com,2013-09-28 04:12:00,
2013-09-28 00:27:00,46.2,45.7,30.21,SSE,157,0.0,-999.0,98,-99.99,,,0.00,Acu-Link.com,2013-09-28 04:27:00,
2013-09-28 00:42:00,46.9,46.4,30.21,SW,225,0.0,-999.0,98,-99.99,,,0.00,Acu-Link.com,2013-09-28 04:42:00,
2013-09-28 00:57:00,47.1,46.6,30.20,NW,315,0.0,-999.0,98,-99.99,,,0.00,Acu-Link.com,2013-09-28 04:57:00,
2013-09-28 01:12:00,46.8,46.3,30.20,WNW,292,0.0,-999.0,98,-99.99,,,0.00,Acu-Link.com,2013-09-28 05:12:00,
2013-09-28 01:27:00,46.2,45.7,30.21,WNW,292,0.0,-999.0,98,-99.99,,,0.00,Acu-Link.com,2013-09-28 05:27:00,
2013-09-28 01:43:00,45.7,45.2,30.21,WNW,292,0.0,-999.0,98,-99.99,,,0.00,Acu-Link.com,2013-09-28 05:43:00,
2013-09-28 01:58:00,45.3,44.8,30.22,North,0,0.0,-999.0,98,-99.99,,,0.00,Acu-Link.com,2013-09-28 05:58:00,
2013-09-28 02:13:00,44.8,44.3,30.22,North,0,0.0,-999.0,98,-99.99,,,0.00,Acu-Link.com,2013-09-28 06:13:00,
2013-09-28 02:28:00,44.4,43.9,30.21,North,0,0.0,-999.0,98,-99.99,,,0.00,Acu-Link.com,2013-09-28 06:28:00,
2013-09-28 02:43:00,43.9,43.4,30.21,WNW,292,0.0,-999.0,98,-99.99,,,0.00,Acu-Link.com,2013-09-28 06:43:00,
2013-09-28 02:58:00,43.5,43.0,30.21,WNW,292,0.0,-999.0,98,-99.99,,,0.00,Acu-Link.com,2013-09-28 06:58:00,
2013-09-28 03:13:00,43.2,42.7,30.21,WNW,292,0.0,-999.0,98,-99.99,,,0.00,Acu-Link.com,2013-09-28 07:13:00,
2013-09-28 03:28:00,42.8,42.3,30.21,WNW,292,0.0,-999.0,98,-99.99,,,0.00,Acu-Link.com,2013-09-28 07:28:00,
2013-09-28 03:43:00,42.6,42.1,30.21,WNW,292,0.0,-999.0,98,-99.99,,,0.00,Acu-Link.com,2013-09-28 07:43:00,
2013-09-28 03:59:00,42.4,41.9,30.22,WNW,292,0.0,-999.0,98,-99.99,,,0.00,Acu-Link.com,2013-09-28 07:59:00,
2013-09-28 04:15:00,42.1,41.6,30.22,WNW,292,0.0,-999.0,98,-99.99,,,0.00,Acu-Link.com,2013-09-28 08:15:00,
2013-09-28 04:30:00,42.1,41.6,30.22,WNW,292,0.0,-999.0,98,-99.99,,,0.00,Acu-Link.com,2013-09-28 08:30:00,
2013-09-28 04:45:00,41.9,41.4,30.23,SSW,202,0.0,-999.0,98,-99.99,,,0.00,Acu-Link.com,2013-09-28 08:45:00,
2013-09-28 05:01:00,41.7,41.2,30.23,South,180,0.0,-999.0,98,-99.99,,,0.00,Acu-Link.com,2013-09-28 09:01:00,
2013-09-28 05:16:00,41.4,40.9,30.23,SSW,202,0.0,-999.0,98,-99.99,,,0.00,Acu-Link.com,2013-09-28 09:16:00,
2013-09-28 05:31:00,41.2,40.7,30.23,South,180,0.0,-999.0,98,-99.99,,,0.00,Acu-Link.com,2013-09-28 09:31:00,
2013-09-28 05:46:00,41.2,40.7,30.23,SE,135,0.0,-999.0,98,-99.99,,,0.00,Acu-Link.com,2013-09-28 09:46:00,
2013-09-28 06:02:00,41.4,40.9,30.24,WNW,292,0.0,-999.0,98,-99.99,,,0.00,Acu-Link.com,2013-09-28 10:02:00,
2013-09-28 06:17:00,41.7,41.2,30.24,WNW,292,0.0,-999.0,98,-99.99,,,0.00,Acu-Link.com,2013-09-28 10:17:00,
2013-09-28 06:32:00,41.7,41.2,30.23,West,270,0.0,-999.0,98,-99.99,,,0.00,Acu-Link.com,2013-09-28 10:32:00,
2013-09-28 06:48:00,41.5,41.0,30.23,West,270,0.0,-999.0,98,-99.99,,,0.00,Acu-Link.com,2013-09-28 10:48:00,
2013-09-28 07:03:00,41.7,41.2,30.24,West,270,0.0,-999.0,98,-99.99,,,0.00,Acu-Link.com,2013-09-28 11:03:00,
2013-09-28 07:19:00,41.9,41.4,30.25,SSE,157,0.0,-999.0,98,-99.99,,,0.00,Acu-Link.com,2013-09-28 11:19:00,
2013-09-28 07:34:00,42.3,41.8,30.25,NNE,22,0.0,-999.0,98,-99.99,,,0.00,Acu-Link.com,2013-09-28 11:34:00,
2013-09-28 07:49:00,44.6,44.1,30.26,ENE,67,0.0,-999.0,98,-99.99,,,0.00,Acu-Link.com,2013-09-28 11:49:00,
2013-09-28 08:05:00,45.1,44.6,30.26,WNW,292,0.0,-999.0,98,-99.99,,,0.00,Acu-Link.com,2013-09-28 12:05:00,
2013-09-28 08:20:00,46.4,45.9,30.26,ESE,112,0.0,-999.0,98,-99.99,,,0.00,Acu-Link.com,2013-09-28 12:20:00,
2013-09-28 08:35:00,49.1,48.6,30.27,West,270,0.0,-999.0,98,-99.99,,,0.00,Acu-Link.com,2013-09-28 12:35:00,
2013-09-28 08:50:00,54.0,53.4,30.26,NNW,337,0.0,-999.0,98,-99.99,,,0.00,Acu-Link.com,2013-09-28 12:50:00,
2013-09-28 09:05:00,59.4,58.8,30.27,SE,135,0.0,-999.0,98,-99.99,,,0.00,Acu-Link.com,2013-09-28 13:05:00,
2013-09-28 09:20:00,63.1,62.5,30.27,South,180,0.0,-999.0,98,-99.99,,,0.00,Acu-Link.com,2013-09-28 13:20:00,
2013-09-28 09:35:00,66.7,66.1,30.27,NE,45,0.0,-999.0,98,-99.99,,,0.00,Acu-Link.com,2013-09-28 13:35:00,
2013-09-28 09:50:00,68.4,67.8,30.27,SSW,202,0.0,-999.0,98,-99.99,,,0.00,Acu-Link.com,2013-09-28 13:50:00,
2013-09-28 10:05:00,70.9,70.3,30.26,East,90,2.2,-999.0,98,-99.99,,,0.00,Acu-Link.com,2013-09-28 14:05:00,
2013-09-28 10:21:00,71.1,70.5,30.26,ESE,112,2.7,-999.0,98,-99.99,,,0.00,Acu-Link.com,2013-09-28 14:21:00,
2013-09-28 10:36:00,72.1,71.5,30.26,North,0,2.2,-999.0,98,-99.99,,,0.00,Acu-Link.com,2013-09-28 14:36:00,
2013-09-28 10:51:00,73.8,73.2,30.26,South,180,0.0,-999.0,98,-99.99,,,0.00,Acu-Link.com,2013-09-28 14:51:00,
2013-09-28 11:06:00,75.7,75.1,30.25,SW,225,0.0,-999.0,98,-99.99,,,0.00,Acu-Link.com,2013-09-28 15:06:00,
2013-09-28 11:21:00,75.6,75.0,30.24,NNE,22,2.2,-999.0,98,-99.99,,,0.00,Acu-Link.com,2013-09-28 15:21:00,
2013-09-28 11:36:00,76.1,75.5,30.24,SE,135,2.2,-999.0,98,-99.99,,,0.00,Acu-Link.com,2013-09-28 15:36:00,
2013-09-28 11:51:00,76.8,76.2,30.23,ENE,67,2.2,-999.0,98,-99.99,,,0.00,Acu-Link.com,2013-09-28 15:51:00,
2013-09-28 12:06:00,77.0,76.4,30.23,SSW,202,3.7,-999.0,98,-99.99,,,0.00,Acu-Link.com,2013-09-28 16:06:00,
2013-09-28 12:21:00,77.5,76.9,30.22,NE,45,2.7,-999.0,98,-99.99,,,0.00,Acu-Link.com,2013-09-28 16:21:00,
2013-09-28 12:37:00,78.4,77.8,30.22,NE,45,2.7,-999.0,98,-99.99,,,0.00,Acu-Link.com,2013-09-28 16:37:00,
2013-09-28 12:52:00,76.8,76.2,30.22,WNW,292,1.7,-999.0,98,-99.99,,,0.00,Acu-Link.com,2013-09-28 16:52:00,
2013-09-28 13:07:00,77.7,77.1,30.21,NE,45,1.1,-999.0,98,-99.99,,,0.00,Acu-Link.com,2013-09-28 17:07:00,
2013-09-28 13:22:00,77.0,76.4,30.21,South,180,2.7,-999.0,98,-99.99,,,0.00,Acu-Link.com,2013-09-28 17:22:00,
2013-09-28 13:37:00,75.7,74.8,30.20,ENE,67,1.7,-999.0,97,-99.99,,,0.00,Acu-Link.com,2013-09-28 17:37:00,
2013-09-28 13:52:00,78.6,78.0,30.19,East,90,0.0,-999.0,98,-99.99,,,0.00,Acu-Link.com,2013-09-28 17:52:00,
2013-09-28 14:07:00,80.6,75.3,30.18,NNE,22,1.1,-999.0,84,-99.99,,,0.00,Acu-Link.com,2013-09-28 18:07:00,
2013-09-28 14:22:00,79.5,72.0,30.17,ESE,112,1.7,-999.0,78,-99.99,,,0.00,Acu-Link.com,2013-09-28 18:22:00,
2013-09-28 14:37:00,80.2,74.2,30.17,ESE,112,2.2,-999.0,82,-99.99,,,0.00,Acu-Link.com,2013-09-28 18:37:00,
2013-09-28 14:53:00,80.4,67.1,30.16,SSE,157,0.0,-999.0,64,-99.99,,,0.00,Acu-Link.com,2013-09-28 18:53:00,
2013-09-28 15:08:00,77.4,69.2,30.16,SSE,157,2.2,-999.0,76,-99.99,,,0.00,Acu-Link.com,2013-09-28 19:08:00,
2013-09-28 15:23:00,78.4,73.5,30.16,NW,315,1.7,-999.0,85,-99.99,,,0.00,Acu-Link.com,2013-09-28 19:23:00,
2013-09-28 15:38:00,75.9,71.4,30.15,East,90,2.2,-999.0,86,-99.99,,,0.00,Acu-Link.com,2013-09-28 19:38:00,
2013-09-28 15:53:00,74.7,74.1,30.14,West,270,1.7,-999.0,98,-99.99,,,0.00,Acu-Link.com,2013-09-28 19:53:00,
2013-09-28 16:08:00,72.7,72.1,30.14,NNW,337,2.7,-999.0,98,-99.99,,,0.00,Acu-Link.com,2013-09-28 20:08:00,
2013-09-28 16:23:00,71.8,71.2,30.14,ESE,112,3.7,-999.0,98,-99.99,,,0.00,Acu-Link.com,2013-09-28 20:23:00,
2013-09-28 16:38:00,71.4,70.8,30.14,NE,45,0.0,-999.0,98,-99.99,,,0.00,Acu-Link.com,2013-09-28 20:38:00,
2013-09-28 16:53:00,70.7,70.1,30.13,West,270,0.0,-999.0,98,-99.99,,,0.00,Acu-Link.com,2013-09-28 20:53:00,
2013-09-28 17:09:00,70.3,69.7,30.13,NE,45,2.2,-999.0,98,-99.99,,,0.00,Acu-Link.com,2013-09-28 21:09:00,
2013-09-28 17:24:00,69.6,69.0,30.14,ESE,112,1.1,-999.0,98,-99.99,,,0.00,Acu-Link.com,2013-09-28 21:24:00,
2013-09-28 17:39:00,68.9,68.3,30.14,South,180,1.1,-999.0,98,-99.99,,,0.00,Acu-Link.com,2013-09-28 21:39:00,
2013-09-28 17:54:00,67.5,66.9,30.14,NE,45,0.0,-999.0,98,-99.99,,,0.00,Acu-Link.com,2013-09-28 21:54:00,
2013-09-28 18:09:00,66.6,66.0,30.14,SSE,157,1.7,-999.0,98,-99.99,,,0.00,Acu-Link.com,2013-09-28 22:09:00,
2013-09-28 18:24:00,65.3,64.7,30.14,SSW,202,0.0,-999.0,98,-99.99,,,0.00,Acu-Link.com,2013-09-28 22:24:00,
2013-09-28 18:39:00,63.9,63.3,30.14,NNE,22,0.0,-999.0,98,-99.99,,,0.00,Acu-Link.com,2013-09-28 22:39:00,
2013-09-28 18:54:00,62.2,61.6,30.14,ESE,112,0.0,-999.0,98,-99.99,,,0.00,Acu-Link.com,2013-09-28 22:54:00,
2013-09-28 19:09:00,60.4,59.8,30.14,ESE,112,0.0,-999.0,98,-99.99,,,0.00,Acu-Link.com,2013-09-28 23:09:00,
2013-09-28 19:24:00,59.0,58.4,30.14,ESE,112,0.0,-999.0,98,-99.99,,,0.00,Acu-Link.com,2013-09-28 23:24:00,
2013-09-28 19:40:00,57.6,57.0,30.14,ESE,112,0.0,-999.0,98,-99.99,,,0.00,Acu-Link.com,2013-09-28 23:40:00,
2013-09-28 19:55:00,56.5,55.9,30.13,ESE,112,0.0,-999.0,98,-99.99,,,0.00,Acu-Link.com,2013-09-28 23:55:00,
2013-09-28 20:10:00,55.4,54.8,30.13,ESE,112,0.0,-999.0,98,-99.99,,,0.00,Acu-Link.com,2013-09-29 00:10:00,
2013-09-28 20:25:00,54.3,53.7,30.14,NW,315,0.0,-999.0,98,-99.99,,,0.00,Acu-Link.com,2013-09-29 00:25:00,
2013-09-28 20:40:00,53.6,53.0,30.13,North,0,0.0,-999.0,98,-99.99,,,0.00,Acu-Link.com,2013-09-29 00:40:00,
2013-09-28 20:55:00,52.9,52.4,30.14,NNE,22,0.0,-999.0,98,-99.99,,,0.00,Acu-Link.com,2013-09-29 00:55:00,
2013-09-28 21:10:00,52.2,51.7,30.14,NE,45,0.0,-999.0,98,-99.99,,,0.00,Acu-Link.com,2013-09-29 01:10:00,
2013-09-28 21:25:00,51.6,51.1,30.14,ENE,67,0.0,-999.0,98,-99.99,,,0.00,Acu-Link.com,2013-09-29 01:25:00,
2013-09-28 21:40:00,51.3,50.8,30.15,NNE,22,0.0,-999.0,98,-99.99,,,0.00,Acu-Link.com,2013-09-29 01:40:00,
2013-09-28 21:56:00,50.7,50.2,30.14,East,90,0.0,-999.0,98,-99.99,,,0.00,Acu-Link.com,2013-09-29 01:56:00,
2013-09-28 22:11:00,50.4,49.9,30.14,East,90,0.0,-999.0,98,-99.99,,,0.00,Acu-Link.com,2013-09-29 02:11:00,
2013-09-28 22:26:00,50.0,49.5,30.14,NE,45,0.0,-999.0,98,-99.99,,,0.00,Acu-Link.com,2013-09-29 02:26:00,
2013-09-28 22:41:00,49.3,48.8,30.15,ENE,67,0.0,-999.0,98,-99.99,,,0.00,Acu-Link.com,2013-09-29 02:41:00,
2013-09-28 22:56:00,48.7,48.2,30.15,WNW,292,0.0,-999.0,98,-99.99,,,0.00,Acu-Link.com,2013-09-29 02:56:00,
2013-09-28 23:11:00,48.4,47.9,30.15,East,90,0.0,-999.0,98,-99.99,,,0.00,Acu-Link.com,2013-09-29 03:11:00,
2013-09-28 23:26:00,48.2,47.7,30.14,East,90,0.0,-999.0,98,-99.99,,,0.00,Acu-Link.com,2013-09-29 03:26:00,
2013-09-28 23:41:00,48.4,47.9,30.14,NNE,22,0.0,-999.0,98,-99.99,,,0.00,Acu-Link.com,2013-09-29 03:41:00,
2013-09-28 23:56:00,48.2,47.7,30.14,NNE,22,0.0,-999.0,98,-99.99,,,0.00,Acu-Link.com,2013-09-29 03:56:00,